{"data":{"norad_id":62864,"intl_designator":"2025-022L","name":"STARLINK-32862","alt_names":[],"object_type":"PAYLOAD","status":"ACTIVE","operator":null,"country":"US","launch_date":"2025-02-01","launch_site_code":"AFWTR","launch_vehicle":null,"mission":null,"orbit_class":"UNKNOWN","rcs_meters":null,"size_class":null,"mass_kg":null,"dimensions":null,"purposes":["comms"],"wikipedia_slug":null,"has_3d_model":false,"image_url":null,"decayed_at":null,"tle_current":{"epoch":"2026-05-25T03:38:47.210784Z","epoch_age_seconds":76076,"freshness":"FRESH","line1":"1 62864U 25022L   26145.15193531  .00014569  00000+0  50268-3 0  9991","line2":"2 62864  53.1588 134.6818 0001345  92.0463 268.0691 15.30223224 73608","mean_motion":15.30223224,"eccentricity":0.0001345,"inclination_deg":53.1588,"raan_deg":134.6818,"arg_perigee_deg":92.0463,"mean_anomaly_deg":268.0691,"bstar":0.00050268,"rev_number":7360,"period_min":94.10391748178,"perigee_km":474.22396109162,"apogee_km":476.06749414535,"semimajor_km":6853.2827276185,"source":"CELESTRAK","updated_at":"2026-05-25T13:38:19.785036Z"}}}